Flag for Canada Weather past 2 weeks in Victoria, British Columbia, Canada

54 °F

Mostly cloudy.

Feels Like: 54 °F
Forecast: 53 / 58 °F
Wind: No wind

Location: Victoria Int. Airportb. C.

Current Time: Oct 6, 2015 at 9:32:49 PM

Latest Report: Oct 6, 2015 at 9:00 PM

Visibility: 30 mi

Pressure: 30.05 "Hg

Humidity: 94%

Dew point: 52 °F

Location of VictoriaLocation

Historic Weather in Victoria — Graph


Victoria temperature yesterday

Maximum temperature yesterday: 68 °F (at 3:00 PM)
Minimum temperature yesterday: 46 °F (at 1:00 AM)
Average temperature yesterday: 55 °F

Past Weeks' High & Low Weather Summary

High68 °F (Oct 3, 3:00 PM)100% (Sep 23, 8:00 AM)30.24 "Hg (Sep 23, 8:00 AM)
Low41 °F (Sep 27, 5:00 AM)33% (Oct 3, 3:00 PM)29.87 "Hg (Oct 5, 6:00 PM)
Average53 °F82%30.03 "Hg
* Reported Sep 21 8:00 PM — Oct 6 8:00 PM, Victoria, Weather by CustomWeather, © 2015

Note: Actual official high and low records may vary slightly from our data, if they occured in-between our weather recording intervals... More about our weather records


Victoria weather history for previous 24 hours

Time TempWeatherWind HumidityBarometerVisibility
8:00 PM
Tue, Oct 6
54 °FPassing clouds.No wind94%30.03 "Hg30 mi
7:00 PM54 °FPartly sunny.6 mph88%30.02 "Hg30 mi
6:00 PM54 °FBroken clouds.8 mph88%30.01 "Hg30 mi
5:00 PM55 °FBroken clouds.13 mph82%30.00 "Hg30 mi
4:00 PM57 °FBroken clouds.10 mph77%30.00 "Hg30 mi
3:00 PM55 °FBroken clouds.8 mph88%29.99 "Hg30 mi
2:00 PM57 °FBroken clouds.8 mph77%29.99 "Hg30 mi
1:00 PM57 °FBroken clouds.7 mph77%29.99 "Hg30 mi
12:00 PM59 °FBroken clouds.6 mph72%29.98 "Hg30 mi
11:00 AM57 °FBroken clouds.3 mph77%29.97 "Hg30 mi
10:00 AM55 °FPartly sunny.3 mph82%29.98 "Hg30 mi
9:00 AM54 °FBroken clouds.6 mph88%29.97 "Hg30 mi
8:00 AM52 °FPartly cloudy.No wind88%29.93 "Hg30 mi
7:00 AM50 °FPartly cloudy.6 mph94%29.94 "Hg30 mi
6:00 AM50 °FPassing clouds.5 mph94%29.94 "Hg30 mi
5:00 AM50 °FPassing clouds.5 mph94%29.92 "Hg30 mi
4:00 AM46 °FPassing clouds.6 mph93%29.91 "Hg30 mi
3:00 AM50 °FPassing clouds.3 mph94%29.92 "Hg30 mi
2:00 AM48 °FPassing clouds.5 mph94%29.91 "Hg30 mi
1:00 AM52 °FPassing clouds.3 mph88%29.90 "Hg30 mi
12:00 AM52 °FPassing clouds.6 mph88%29.90 "Hg30 mi
11:00 PM
Mon, Oct 5
52 °FPassing clouds.3 mph88%29.90 "Hg30 mi
10:00 PM52 °FPassing clouds.6 mph82%29.89 "Hg30 mi
9:00 PM54 °FPassing clouds.5 mph82%29.88 "Hg30 mi
Weather by CustomWeather, © 2015

See weather overviewHow to use our weather pages